New York Downtown Manhattan/w, NY

6:24 PM EDT on September 21, 2017 (GMT -0400)
New York Downtown Manhattan/w

Weather History for KJRB - October, 2013

Change the Weather History Date:

Monday, October 28, 2013

  Actual Average (KEWR) Record (KEWR)
Temperature  
Mean Temperature 54 °F -  
Max Temperature 64 °F 62 °F 82 °F (1984)
Min Temperature 44 °F 45 °F 25 °F (1936)
Degree Days  
Heating Degree Days 11    
Growing Degree Days 4 (Base 50)    
Moisture  
Dew Point 35 °F    
Average Humidity 51    
Maximum Humidity 71    
Minimum Humidity 32    
Precipitation  
Precipitation 0.05 in - - ()
Sea Level Pressure  
Sea Level Pressure 30.22 in    
Wind  
Wind Speed 7 mph (West)    
Max Wind Speed 14 mph    
Max Gust Speed 25 mph    
Visibility 10 miles    
Events      
Averages and records for this station are not official NWS values.
T = Trace of Precipitation, MM = Missing Value Source: NWS Daily Summary

Daily Weather History Graph

Daily Weather History Graph

Search for Another Location

Airport or City:

Trip Planner

Search our weather history database for the weather conditions in past years. The results will help you decide how hot, cold, wet, or windy it might be!

Date:

Astronomy

Oct. 28, 2013 Rise Set
Actual Time 7:21 AM EDT 5:57 PM EDT
Civil Twilight 6:53 AM EDT 6:25 PM EDT
Nautical Twilight 6:21 AM EDT 6:57 PM EDT
Astronomical Twilight 5:49 AM EDT 7:29 PM EDT
Moon 1:10 AM EDT (10/28) 2:39 PM EDT (10/28)
Length of Visible Light 11h 31m
Length of Day
10h 35m
Waning Crescent, 34% of the Moon is Illuminated
Oct 28
Waning Crescent
Nov 3
New
Nov 10
First Quarter
Nov 17
Full
Nov 25
Last Quarter

Hourly Weather History & Observations

Time (EDT) Temp. Windchill Dew Point Humidity Pressure Visibility Wind Dir Wind Speed Gust Speed Precip Events Conditions
12:15 AM 50.0 °F - 33.8 °F 54% 30.14 in 10.0 mi West 4.6 mph - N/A   Clear
12:35 AM 50.0 °F - 33.8 °F 54% 30.14 in 10.0 mi West 5.8 mph - N/A   Clear
12:55 AM 48.2 °F - 33.8 °F 58% 30.15 in 10.0 mi WSW 5.8 mph - N/A   Clear
1:15 AM 48.2 °F - 33.8 °F 58% 30.15 in 10.0 mi WSW 5.8 mph - N/A   Clear
1:35 AM 48.2 °F - 33.8 °F 58% 30.15 in 10.0 mi WSW 4.6 mph - N/A   Clear
1:55 AM 48.2 °F - 35.6 °F 62% 30.16 in 10.0 mi WSW 4.6 mph - N/A   Clear
2:15 AM 48.2 °F - 35.6 °F 62% 30.15 in 10.0 mi West 4.6 mph - N/A   Clear
2:35 AM 48.2 °F - 35.6 °F 62% 30.15 in 10.0 mi WSW 5.8 mph - N/A   Clear
2:55 AM 48.2 °F - 35.6 °F 62% 30.15 in 10.0 mi West 4.6 mph - N/A   Clear
3:15 AM 48.2 °F - 35.6 °F 62% 30.15 in 10.0 mi WSW 5.8 mph - N/A   Clear
3:35 AM 48.2 °F - 35.6 °F 62% 30.16 in 10.0 mi West 4.6 mph - N/A   Clear
3:55 AM 48.2 °F - 35.6 °F 62% 30.16 in 10.0 mi West 5.8 mph - N/A   Clear
4:15 AM 46.4 °F 43.5 °F 37.4 °F 71% 30.16 in 10.0 mi West 5.8 mph - N/A   Clear
4:35 AM 46.4 °F 43.5 °F 37.4 °F 71% 30.17 in 10.0 mi WSW 5.8 mph - N/A   Clear
4:55 AM 46.4 °F 43.5 °F 37.4 °F 71% 30.16 in 10.0 mi West 5.8 mph - N/A   Clear
5:15 AM 46.4 °F 44.3 °F 35.6 °F 66% 30.16 in 10.0 mi West 4.6 mph - N/A   Clear
5:35 AM 46.4 °F 43.5 °F 35.6 °F 66% 30.16 in 10.0 mi West 5.8 mph - N/A   Clear
5:55 AM 46.4 °F 43.5 °F 35.6 °F 66% 30.17 in 10.0 mi WSW 5.8 mph - N/A   Clear
6:15 AM 44.6 °F 43.1 °F 35.6 °F 71% 30.18 in 10.0 mi WSW 3.5 mph - N/A   Clear
6:35 AM 44.6 °F 42.2 °F 35.6 °F 71% 30.18 in 10.0 mi West 4.6 mph - N/A   Clear
6:55 AM 44.6 °F 43.1 °F 35.6 °F 71% 30.19 in 10.0 mi West 3.5 mph - N/A   Clear
7:15 AM 46.4 °F 43.5 °F 35.6 °F 66% 30.20 in 10.0 mi West 5.8 mph - N/A   Clear
7:35 AM 46.4 °F 44.3 °F 35.6 °F 66% 30.21 in 10.0 mi West 4.6 mph - N/A   Clear
7:55 AM 44.6 °F 41.4 °F 35.6 °F 71% 30.22 in 10.0 mi West 5.8 mph - N/A   Clear
8:15 AM 46.4 °F 44.3 °F 35.6 °F 66% 30.23 in 10.0 mi West 4.6 mph - N/A   Clear
8:35 AM 46.4 °F 44.3 °F 35.6 °F 66% 30.23 in 10.0 mi West 4.6 mph - N/A   Clear
8:55 AM 46.4 °F 43.5 °F 35.6 °F 66% 30.24 in 10.0 mi WSW 5.8 mph - N/A   Clear
9:15 AM 48.2 °F - 35.6 °F 62% 30.25 in 10.0 mi West 9.2 mph - N/A   Clear
9:35 AM 50.0 °F - 35.6 °F 58% 30.25 in 10.0 mi West 6.9 mph 19.6 mph N/A   Clear
9:55 AM 51.8 °F - 35.6 °F 54% 30.25 in 10.0 mi West 8.1 mph - N/A   Clear
10:15 AM 51.8 °F - 35.6 °F 54% 30.26 in 10.0 mi West 8.1 mph - N/A   Clear
10:35 AM 53.6 °F - 35.6 °F 51% 30.26 in 10.0 mi WSW 10.4 mph 16.1 mph N/A   Clear
10:55 AM 53.6 °F - 33.8 °F 47% 30.25 in 10.0 mi West 11.5 mph 25.3 mph 0.01 in   Clear
11:15 AM 55.4 °F - 33.8 °F 44% 30.25 in 10.0 mi West 10.4 mph 21.9 mph N/A   Clear
11:35 AM 55.4 °F - 33.8 °F 44% 30.25 in 10.0 mi West 12.7 mph 17.3 mph N/A   Clear
11:55 AM 57.2 °F - 35.6 °F 44% 30.24 in 10.0 mi West 13.8 mph 19.6 mph N/A   Clear
12:15 PM 57.2 °F - 33.8 °F 41% 30.23 in 10.0 mi West 12.7 mph 24.2 mph N/A   Clear
12:35 PM 59.0 °F - 33.8 °F 39% 30.22 in 10.0 mi WSW 12.7 mph 18.4 mph N/A   Clear
12:55 PM 60.8 °F - 33.8 °F 36% 30.22 in 10.0 mi West 12.7 mph - N/A   Clear
1:15 PM 60.8 °F - 33.8 °F 36% 30.20 in 10.0 mi West 8.1 mph 17.3 mph N/A   Clear
1:35 PM 62.6 °F - 35.6 °F 37% 30.20 in 10.0 mi West 8.1 mph 19.6 mph N/A   Clear
1:55 PM 62.6 °F - 33.8 °F 34% 30.20 in 10.0 mi West 10.4 mph 18.4 mph N/A   Clear
2:15 PM 62.6 °F - 33.8 °F 34% 30.19 in 10.0 mi West 11.5 mph - N/A   Clear
2:35 PM 62.6 °F - 35.6 °F 37% 30.19 in 10.0 mi West 11.5 mph 23.0 mph 0.02 in   Clear
2:55 PM 64.4 °F - 33.8 °F 32% 30.19 in 10.0 mi WSW 12.7 mph 20.7 mph 0.02 in   Clear
3:15 PM 64.4 °F - 33.8 °F 32% 30.19 in 10.0 mi West 10.4 mph 16.1 mph N/A   Clear
3:35 PM 62.6 °F - 35.6 °F 37% 30.19 in 10.0 mi West 11.5 mph - N/A   Clear
3:55 PM 62.6 °F - 33.8 °F 34% 30.19 in 10.0 mi West 8.1 mph 17.3 mph N/A   Clear
4:15 PM 62.6 °F - 35.6 °F 37% 30.20 in 10.0 mi West 6.9 mph - N/A   Clear
4:35 PM 62.6 °F - 35.6 °F 37% 30.20 in 10.0 mi West 11.5 mph 19.6 mph 0.01 in   Clear
4:55 PM 62.6 °F - 35.6 °F 37% 30.20 in 10.0 mi West 8.1 mph - 0.02 in   Clear
5:15 PM 60.8 °F - 35.6 °F 39% 30.20 in 10.0 mi West 8.1 mph - N/A   Clear
5:35 PM 60.8 °F - 33.8 °F 36% 30.21 in 10.0 mi West 6.9 mph - N/A   Clear
5:55 PM 60.8 °F - 35.6 °F 39% 30.22 in 10.0 mi West 8.1 mph - N/A   Clear
6:15 PM 60.8 °F - 37.4 °F 42% 30.23 in 10.0 mi West 6.9 mph - N/A   Clear
6:35 PM 59.0 °F - 35.6 °F 42% 30.24 in 10.0 mi West 5.8 mph - N/A   Clear
6:55 PM 59.0 °F - 35.6 °F 42% 30.24 in 10.0 mi West 4.6 mph - N/A   Clear
7:15 PM 59.0 °F - 33.8 °F 39% 30.26 in 10.0 mi Calm Calm - N/A   Clear
7:35 PM 60.8 °F - 35.6 °F 39% 30.26 in 10.0 mi Calm Calm - N/A   Clear
7:55 PM 59.0 °F - 33.8 °F 39% 30.27 in 10.0 mi Calm Calm - N/A   Clear
8:15 PM 59.0 °F - 37.4 °F 45% 30.27 in 10.0 mi NE 6.9 mph - N/A   Clear
8:35 PM 57.2 °F - 37.4 °F 48% 30.28 in 10.0 mi NE 5.8 mph - N/A   Clear
8:55 PM 57.2 °F - 35.6 °F 44% 30.29 in 10.0 mi Calm Calm - N/A   Clear
9:15 PM 57.2 °F - 37.4 °F 48% 30.29 in 10.0 mi NE 5.8 mph - N/A   Clear
9:35 PM 57.2 °F - 37.4 °F 48% 30.30 in 10.0 mi NE 9.2 mph - N/A   Clear
9:55 PM 57.2 °F - 37.4 °F 48% 30.30 in 10.0 mi NE 8.1 mph - N/A   Clear
10:15 PM 55.4 °F - 35.6 °F 47% 30.31 in 10.0 mi NE 8.1 mph 16.1 mph N/A   Clear
10:35 PM 55.4 °F - 35.6 °F 47% 30.31 in 10.0 mi NE 8.1 mph - N/A   Clear
10:55 PM 55.4 °F - 35.6 °F 47% 30.30 in 10.0 mi NE 6.9 mph - N/A   Clear
11:15 PM 55.4 °F - 35.6 °F 47% 30.31 in 10.0 mi NE 10.4 mph - N/A   Clear
11:35 PM 55.4 °F - 37.4 °F 51% 30.31 in 10.0 mi NE 10.4 mph - N/A   Clear
11:55 PM 55.4 °F - 37.4 °F 51% 30.32 in 10.0 mi NE 12.7 mph 17.3 mph N/A   Clear